Dewpoint
45 45 45 45 45 45 45 45 45 45 45 46 45 45 45 44 42 39 38 39 32 28 28 32 32 28 29 28 24 25 23 22 16 10 12 10 16 19 21 19 20 18 13 8 11 1 6 18 19 17 21 21 22 24
45 45 45 45 45 45 45 46 46 45 45 45 45 45 45 44 43 41 38 40 39 32 30 36 36 35 32 29 27 24 23 23 22 15 13 17 16 17 20 14 20 17 20 17 15 15 20 21 21 22 22 22 24 27
45 45 45 45 45 45 45 45 45 45 45 45 45 45 45 45 43 41 37 36 34 30 29 29 27 31 35 34 32 25 25 26 23 23 20 18 17 22 14 18 20 19 22 18 19 19 19 21 21 22 21 21 23 28
44 44 44 44 44 44 44 43 43 43 43 45 45 45 45 44 43 40 37 36 34 30 24 25 30 30 33 34 33 31 30 31 28 27 16 15 16 22 19 19 19 19 19 17 18 17 17 18 20 21 20 21 24 25
43 43 43 43 43 44 43 43 43 43 43 45 45 45 46 43 42 39 38 38 36 31 24 25 28 28 30 33 33 32 31 29 25 26 23 19 24 24 23 25 21 21 18 17 16 17 18 18 20 21 21 21 22 24
42 42 42 43 43 43 42 42 42 42 43 45 44 45 45 42 38 34 30 34 38 34 25 18 26 26 27 30 31 30 30 27 23 30 28 27 27 25 16 19 21 20 23 23 22 22 22 22 23 23 23 24 24 24
42 42 43 42 42 41 41 43 44 43 43 43 44 45 42 38 34 31 29 31 38 33 24 20 22 25 27 29 27 26 27 23 26 23 25 24 25 27 23 19 19 20 21 22 23 24 22 22 21 23 25 24 25 23
42 42 42 42 41 41 43 43 43 43 44 44 43 42 41 39 36 34 36 40 37 30 27 18 20 21 26 22 21 26 28 27 28 25 28 24 25 26 23 23 23 23 23 23 23 23 23 23 23 23 23 23 23 23
41 41 41 41 42 42 42 42 42 42 43 42 40 37 33 31 30 30 38 36 34 28 17 23 17 10 26 25 22 21 22 23 24 24 27 26 23 20 22 23 26 29 30 31 32 27 22 22 22 23 23 23 26 25
41 42 42 42 41 41 41 41 41 41 41 37 32 29 23 30 37 37 30 26 23 23 29 20 23 19 24 24 25 20 23 22 11 19 24 25 22 23 26 27 30 32 34 34 29 27 27 26 24 24 25 25 28 28
41 41 41 41 41 41 41 41 41 39 34 30 30 32 34 39 31 26 22 23 25 21 24 23 23 21 24 21 22 21 21 22 14 18 18 18 19 25 29 30 30 31 33 34 35 35 33 31 26 24 25 27 30 30
41 41 41 41 41 41 41 40 37 31 29 31 35 37 34 28 24 20 18 22 21 18 22 21 22 23 22 24 21 24 23 22 18 23 19 15 24 28 28 29 28 29 30 30 32 34 34 33 34 33 32 32 32 32
40 40 40 40 40 41 38 36 36 39 36 30 29 26 23 23 12 12 12 20 18 23 27 27 21 22 21 23 20 17 12 13 22 12 15 21 26 26 29 29 29 29 30 30 28 29 31 33 32 31 30 30 30 29
38 38 38 38 39 38 37 37 37 34 30 25 21 14 12 15 17 20 20 21 27 27 25 22 19 26 26 21 23 19 19 21 15 8 11 22 26 26 27 29 29 27 28 28 28 29 29 29 29 29 29 28 27 27
38 37 37 37 38 36 36 36 34 32 27 24 19 11 15 21 22 23 25 26 27 25 22 20 20 24 23 23 23 24 22 16 18 10 20 25 26 26 25 27 27 26 26 28 29 29 29 28 27 28 29 28 28 27
38 37 35 37 37 36 35 33 30 28 25 24 22 18 20 19 17 20 23 22 25 23 21 21 22 20 19 22 19 15 19 12 17 22 24 26 26 26 26 27 27 27 28 28 28 28 28 28 27 27 25 25 27 27
34 34 38 38 36 34 33 30 28 23 23 20 14 22 19 19 17 20 22 20 24 20 10 18 8 16 22 17 17 21 14 19 23 27 29 29 28 26 27 26 25 23 22 23 24 25 25 27 27 26 26 26 27 28
33 36 38 33 30 30 29 27 25 22 18 21 11 13 20 21 18 19 21 22 21 21 20 15 18 17 7 13 10 18 21 22 25 26 26 27 28 27 25 24 23 23 22 23 23 23 24 23 24 24 25 26 27 27
36 34 32 32 30 27 24 24 22 15 18 20 20 20 19 19 21 20 21 22 22 22 18 19 15 15 15 18 17 19 21 23 21 22 24 25 25 25 24 23 22 23 23 23 24 24 25 25 25 25 26 27 26 27
32 32 30 29 25 19 19 21 25 20 17 17 19 17 17 18 21 19 21 22 21 21 13 12 16 17 18 20 22 22 21 23 23 22 21 23 24 23 21 22 22 23 23 24 24 22 23 23 24 25 25 25 26 27
28 28 30 26 24 22 21 19 18 19 18 16 18 13 14 18 17 14 16 18 14 14 12 17 14 17 20 21 23 23 22 22 21 22 21 22 22 21 22 23 23 23 23 23 22 22 22 23 24 25 26 28 26 25
28 28 26 26 21 18 18 20 15 16 15 15 13 14 12 3 3 9 18 11 10 12 15 14 15 17 16 16 17 19 21 21 21 22 22 21 21 21 20 20 20 21 21 22 22 23 23 25 26 27 28 25 24 22
28 25 24 21 12 9 12 18 13 12 6 10 14 8 7 7 13 15 2 10 10 14 16 17 16 17 18 18 20 19 19 20 21 21 23 23 23 22 21 20 20 20 21 21 22 23 25 27 26 24 23 20 16 5
26 19 11 11 10 3 15 9 17 14 11 10 8 1 6 6 11 5 2 4 9 14 16 14 17 15 16 16 14 16 18 18 19 18 20 19 19 17 18 19 21 22 22 22 22 24 25 23 20 19 10 4 -4 -4
9 8 9 1 8 3 0 1 5 7 -5 -2 -1 -6 -2 8 -4 -7 0 5 6 8 10 12 12 14 15 14 14 15 16 17 18 20 21 18 15 14 16 17 18 19 19 17 19 21 21 19 16 12 10 1 7 1
-4 -1 3 3 -0 4 3 -3 -5 -4 -2 -5 -1 4 7 -3 -7 -6 0 2 1 6 5 6 8 11 12 15 15 15 16 17 18 17 19 18 17 15 11 13 19 17 17 21 21 19 19 15 9 10 4 6 1 -5
-3 1 15 14 13 11 3 2 8 -1 -9 -8 -6 -8 -7 -9 -9 0 7 10 9 11 13 14 14 14 14 15 17 18 19 17 18 18 17 14 16 17 17 17 19 17 17 21 19 17 15 12 7 2 -2 -8 -10 -10
7 10 5 9 8 12 -5 -3 -6 -5 -2 6 -1 -8 -6 -4 -1 7 9 11 12 14 15 16 17 17 17 17 19 19 19 17 11 11 14 17 17 16 15 17 17 18 15 17 15 11 10 2 1 -6 -9 -10 -8 -8
9 12 8 -4 -4 1 1 1 1 6 10 7 -1 -5 -2 7 9 8 13 15 15 14 15 17 18 19 19 18 18 19 19 12 11 9 10 13 10 15 15 11 8 7 6 11 13 11 8 0 -4 -8 -10 -9 -7 -16
8 14 1 -8 -1 1 4 8 4 1 11 10 10 11 11 12 14 14 13 16 13 15 18 14 17 17 17 17 17 17 16 16 17 17 15 13 13 12 3 7 8 6 6 9 10 10 5 -4 -4 -13 -14 -15 -18 -20
13 8 1 1 0 3 10 -0 -6 -2 -2 3 0 10 12 13 12 14 17 16 13 2 2 3 4 4 7 13 15 16 15 13 14 16 17 16 2 1 5 4 3 5 3 3 4 0 -11 -16 -19 -19 -17 -18 -20 -22
-2 6 3 -2 2 2 -2 -0 -2 3 -1 -2 9 -4 -2 -5 -2 10 4 -1 -2 1 -1 -3 -1 5 5 7 3 6 6 4 3 8 9 8 1 1 8 8 6 4 -2 -6 -9 -8 -13 -17 -20 -21 -21 -22 -22 -22
-9 -10 -10 -5 -1 -1 -3 1 4 6 7 1 -2 -0 1 1 0 6 0 -0 2 7 1 0 -1 -5 -4 -4 -3 -1 2 3 7 10 10 10 10 9 7 4 3 -3 -4 -10 -13 -12 -15 -17 -22 -23 -24 -24 -23 -18
Lifted_Index
13 13 13 14 14 14 14 15 15 15 14 14 14 13 13 12 12 11 10 10 10 10 10 10 9 9 9 9 9 9 9 9 9 8 8 8 7 7 7 7 7 7 6 6 7 6 6 7 8 7 7 7 6 6
13 13 13 14 14 14 14 15 15 14 14 13 13 13 12 12 12 11 11 11 11 11 11 10 10 10 9 9 9 9 9 9 9 9 9 9 8 8 7 7 7 7 7 7 7 7 7 8 8 8 8 7 7 7
13 13 13 14 14 14 14 14 14 14 13 12 12 12 11 11 12 12 12 11 11 11 11 11 11 11 10 10 10 10 10 10 10 10 10 9 9 9 8 7 7 7 8 8 8 9 9 9 9 9 8 8 8 8
13 13 14 14 14 14 14 14 14 14 13 12 12 11 11 11 12 12 12 12 11 11 10 10 11 12 12 11 11 11 10 10 10 10 10 10 10 10 9 8 7 8 8 9 9 9 10 10 9 9 9 9 9 9
14 14 14 14 14 14 14 14 14 13 13 12 11 11 11 12 12 12 12 12 12 11 10 10 11 12 12 12 12 12 12 11 11 11 11 10 11 11 10 8 7 8 9 9 9 9 10 10 10 9 9 9 9 9
14 14 14 14 14 14 14 14 13 13 13 12 11 11 11 12 12 12 12 12 12 11 10 9 11 12 13 13 13 12 12 12 12 12 11 11 11 11 10 8 8 9 10 10 10 10 10 9 9 9 9 9 8 8
14 14 14 13 13 13 13 13 13 12 12 12 11 11 12 12 12 12 12 12 12 12 10 9 10 12 13 13 12 12 12 12 12 12 12 12 12 11 10 8 9 10 10 10 10 10 9 8 8 8 8 8 8 7
14 13 13 13 13 13 12 12 12 12 11 12 12 12 12 13 13 13 12 12 13 12 10 9 9 10 12 12 12 12 12 12 12 12 12 11 11 10 9 9 10 10 10 9 9 8 8 8 7 7 7 7 7 6
13 13 12 12 12 12 12 12 12 12 12 12 13 13 13 13 13 13 13 13 13 13 11 9 9 10 12 12 12 12 12 12 12 12 12 11 10 9 10 10 10 10 9 8 8 7 7 7 7 6 6 6 6 5
12 12 12 12 12 12 12 12 12 12 13 13 13 13 13 13 13 13 13 13 13 13 12 11 10 11 12 12 12 12 12 12 11 11 11 11 10 9 10 10 10 9 8 8 7 7 6 6 6 5 5 5 5 5
12 12 12 12 12 12 12 12 12 13 14 14 14 13 13 13 13 13 12 12 11 12 12 12 12 12 12 12 12 12 12 11 11 11 11 10 9 9 9 9 9 9 8 7 7 7 6 6 5 4 4 4 4 4
12 12 12 12 12 12 12 13 13 14 14 14 13 13 13 13 12 11 10 10 10 11 12 12 12 12 12 12 12 12 11 11 11 11 11 10 9 9 9 9 9 8 8 7 7 7 7 6 5 4 4 4 3 3
12 12 12 12 12 13 13 14 14 14 14 13 13 12 12 11 11 10 9 10 10 11 12 12 12 12 12 12 11 11 11 10 11 10 10 9 9 9 9 9 9 8 8 7 7 7 7 6 5 5 4 4 4 4
13 13 13 13 13 14 14 14 14 14 13 13 11 11 10 11 11 10 10 11 12 12 12 12 11 11 11 11 10 10 9 10 10 9 9 9 9 9 9 9 9 9 8 7 7 7 7 6 5 5 5 5 5 5
13 14 14 14 14 14 14 14 14 14 13 13 11 10 11 11 12 12 12 12 12 12 12 11 11 11 10 10 9 8 8 8 8 8 8 8 9 9 9 9 9 9 8 7 6 6 6 6 5 5 5 5 5 5
13 13 13 13 14 14 14 14 14 14 13 13 12 12 12 12 12 12 12 12 12 12 12 11 11 10 9 9 8 7 6 6 6 6 7 8 8 8 8 8 8 7 7 6 5 5 6 6 5 5 5 5 5 5
13 13 13 13 13 13 13 13 13 13 13 13 12 12 12 12 12 12 12 12 12 12 11 11 10 9 9 8 7 7 6 6 6 6 7 7 7 7 7 7 6 6 5 5 5 5 6 6 6 5 5 5 5 5
13 12 12 13 13 13 13 13 13 13 12 12 12 12 12 12 12 12 12 12 12 11 10 10 10 9 8 8 7 7 7 7 7 7 7 7 6 6 5 5 4 4 5 5 5 5 6 6 5 5 5 5 5 5
12 12 12 13 13 13 12 12 12 12 12 12 11 11 11 11 11 11 11 11 11 11 10 9 9 9 8 8 7 7 7 8 8 8 7 6 5 5 4 3 4 4 4 5 5 5 5 5 5 5 5 5 4 4
11 12 12 12 12 12 12 12 12 11 11 11 11 10 10 10 10 10 10 10 10 10 10 9 9 9 8 8 8 8 8 8 8 8 7 6 5 4 3 3 3 4 4 5 5 5 5 5 5 5 4 4 3 3
11 12 12 12 12 12 11 11 11 10 10 10 10 10 10 10 10 10 10 10 10 10 10 10 9 9 9 9 9 8 8 7 7 7 6 5 4 4 4 4 4 4 5 5 5 5 5 5 5 4 4 3 3 3
11 11 11 11 11 11 10 10 10 9 9 9 9 9 9 9 10 10 10 9 9 10 10 9 9 9 9 9 8 8 7 6 6 5 5 4 4 4 4 4 4 5 5 5 5 5 5 4 4 4 4 4 3 3
10 10 10 10 9 9 9 9 9 9 8 8 9 9 9 9 9 9 9 9 9 9 9 8 8 8 8 8 7 7 6 5 5 4 4 4 3 4 4 4 4 5 5 5 5 4 4 4 4 4 4 4 4 4
9 9 9 8 8 8 7 7 8 8 8 8 8 8 8 8 8 8 8 8 8 7 7 7 7 7 7 6 6 5 5 5 5 4 4 3 3 4 4 4 4 5 5 5 4 4 4 4 4 4 4 4 4 5
8 8 8 7 7 7 6 6 6 7 7 7 8 8 7 7 7 8 8 7 6 6 6 6 6 6 6 5 5 5 5 5 4 4 4 3 3 4 4 4 4 4 5 4 4 4 4 4 4 4 4 4 5 5
7 7 7 7 6 6 5 6 6 6 6 7 7 7 6 6 7 7 7 6 5 5 5 5 5 5 5 5 5 5 4 4 4 4 4 4 3 4 4 4 4 4 4 4 4 4 4 4 4 4 4 5 5 5
6 6 7 6 6 6 6 6 6 6 6 6 6 5 6 6 6 6 5 5 5 5 5 5 4 4 4 5 5 5 4 4 4 4 4 3 3 3 3 3 4 4 4 4 4 4 4 4 4 4 5 5 6 6
6 6 5 5 5 5 6 6 6 5 5 5 5 5 5 5 5 4 4 4 4 4 4 4 4 4 4 4 4 4 4 4 4 4 3 3 3 3 3 3 4 4 4 4 4 4 5 5 5 6 6 6 7 8
5 5 5 5 5 5 5 5 5 4 4 4 4 4 4 4 3 3 3 3 4 4 4 4 4 4 4 4 4 4 4 4 4 4 3 3 3 2 3 3 3 4 4 4 4 5 5 6 6 7 7 8 8 9
5 4 4 4 4 4 4 4 4 4 3 3 3 3 3 3 2 2 2 3 4 4 4 4 3 3 3 3 4 4 4 4 4 4 3 3 3 3 3 3 3 4 5 5 5 5 6 6 7 8 8 8 9 9
4 4 4 4 3 3 3 3 3 3 3 2 2 2 2 2 2 2 3 3 4 3 3 3 2 3 3 3 4 4 4 4 4 4 3 3 3 3 3 3 4 4 5 6 6 6 6 6 7 8 8 9 9 10
3 3 3 3 3 3 3 3 3 3 3 3 2 2 2 2 2 3 3 3 3 3 2 2 2 2 3 4 4 4 4 4 4 3 3 3 3 3 4 4 5 5 6 7 7 7 7 7 8 8 9 9 10 10
3 2 2 2 3 3 3 3 3 3 3 3 3 3 2 2 2 3 3 3 3 2 2 2 2 3 3 4 4 4 4 4 4 4 4 4 4 4 5 5 6 6 7 7 7 7 7 8 8 9 9 10 11 11